Time,TemperatureF,DewpointF,PressureIn,WindDirection,WindDirectionDegrees,WindSpeedMPH,WindSpeedGustMPH,Humidity,HourlyPrecipIn,Conditions,Clouds,dailyrainin,SoftwareType,DateUTC
2013-04-22 00:01:00,44.8,23.6,30.50,SE,142,0.0,0.0,43,0.00,,,0.00,Wunderground v.1.15,2013-04-22 04:01:00,
2013-04-22 00:03:00,44.7,24.1,30.50,SE,142,0.0,0.0,44,0.00,,,0.00,Wunderground v.1.15,2013-04-22 04:03:00,
2013-04-22 00:04:00,44.7,24.1,30.50,SE,142,0.0,0.0,44,0.00,,,0.00,Wunderground v.1.15,2013-04-22 04:04:00,
2013-04-22 00:10:00,44.6,23.5,30.50,East,82,0.0,0.0,43,0.00,,,0.00,Wunderground v.1.15,2013-04-22 04:10:00,
2013-04-22 00:11:00,44.6,23.5,30.50,East,82,0.0,0.0,43,0.00,,,0.00,Wunderground v.1.15,2013-04-22 04:11:00,
2013-04-22 00:16:00,44.7,23.5,30.50,South,178,0.0,0.0,43,0.00,,,0.00,Wunderground v.1.15,2013-04-22 04:16:00,
2013-04-22 00:21:00,44.7,23.0,30.50,South,178,0.0,0.0,42,0.00,,,0.00,Wunderground v.1.15,2013-04-22 04:21:00,
2013-04-22 00:26:00,44.7,23.5,30.50,NNW,336,0.0,1.0,43,0.00,,,0.00,Wunderground v.1.15,2013-04-22 04:26:00,
2013-04-22 00:31:00,44.8,23.6,30.50,ENE,76,0.0,0.0,43,0.00,,,0.00,Wunderground v.1.15,2013-04-22 04:31:00,
2013-04-22 00:37:00,44.9,24.3,30.50,NE,39,0.0,3.0,44,0.00,,,0.00,Wunderground v.1.15,2013-04-22 04:37:00,
2013-04-22 00:42:00,44.8,24.2,30.50,NE,48,0.0,0.0,44,0.00,,,0.00,Wunderground v.1.15,2013-04-22 04:42:00,
2013-04-22 00:47:00,44.6,24.0,30.50,NE,48,0.0,0.0,44,0.00,,,0.00,Wunderground v.1.15,2013-04-22 04:47:00,
2013-04-22 00:53:00,44.5,25.0,30.50,ENE,70,0.0,1.0,46,0.00,,,0.00,Wunderground v.1.15,2013-04-22 04:53:00,
2013-04-22 00:58:00,44.3,24.8,30.50,ENE,70,0.0,1.0,46,0.00,,,0.00,Wunderground v.1.15,2013-04-22 04:58:00,
2013-04-22 01:03:00,44.2,24.7,30.50,SE,134,0.0,2.0,46,0.00,,,0.00,Wunderground v.1.15,2013-04-22 05:03:00,
2013-04-22 01:08:00,44.2,24.7,30.50,SSE,150,0.0,2.0,46,0.00,,,0.00,Wunderground v.1.15,2013-04-22 05:08:00,
2013-04-22 01:13:00,44.1,24.6,30.49,SSE,148,0.0,0.0,46,0.00,,,0.00,Wunderground v.1.15,2013-04-22 05:13:00,
2013-04-22 01:18:00,44.1,24.6,30.49,East,95,0.0,0.0,46,0.00,,,0.00,Wunderground v.1.15,2013-04-22 05:18:00,
2013-04-22 01:23:00,44.0,24.5,30.49,East,95,0.0,0.0,46,0.00,,,0.00,Wunderground v.1.15,2013-04-22 05:23:00,
2013-04-22 01:29:00,43.9,24.4,30.49,SE,140,0.0,0.0,46,0.00,,,0.00,Wunderground v.1.15,2013-04-22 05:29:00,
2013-04-22 01:34:00,43.8,24.9,30.49,SE,134,0.0,0.0,47,0.00,,,0.00,Wunderground v.1.15,2013-04-22 05:34:00,
2013-04-22 01:39:00,43.8,24.9,30.49,SE,134,0.0,0.0,47,0.00,,,0.00,Wunderground v.1.15,2013-04-22 05:39:00,
2013-04-22 01:45:00,43.7,24.8,30.49,ESE,110,0.0,0.0,47,0.00,,,0.00,Wunderground v.1.15,2013-04-22 05:45:00,
2013-04-22 01:50:00,43.7,24.8,30.49,ENE,65,0.0,0.0,47,0.00,,,0.00,Wunderground v.1.15,2013-04-22 05:50:00,
2013-04-22 01:55:00,43.6,25.7,30.49,ENE,65,0.0,0.0,49,0.00,,,0.00,Wunderground v.1.15,2013-04-22 05:55:00,
2013-04-22 02:00:00,43.5,26.1,30.49,ENE,65,0.0,0.0,50,0.00,,,0.00,Wunderground v.1.15,2013-04-22 06:00:00,
2013-04-22 02:06:00,43.4,26.0,30.48,ENE,65,0.0,1.0,50,0.00,,,0.00,Wunderground v.1.15,2013-04-22 06:06:00,
2013-04-22 02:11:00,43.3,25.4,30.48,ENE,65,0.0,0.0,49,0.00,,,0.00,Wunderground v.1.15,2013-04-22 06:11:00,
2013-04-22 02:16:00,43.2,25.3,30.48,ENE,65,0.0,0.0,49,0.00,,,0.00,Wunderground v.1.15,2013-04-22 06:16:00,
2013-04-22 02:22:00,43.3,25.4,30.48,WNW,296,0.0,2.0,49,0.00,,,0.00,Wunderground v.1.15,2013-04-22 06:22:00,
2013-04-22 02:27:00,43.3,26.8,30.48,WNW,296,0.0,2.0,52,0.00,,,0.00,Wunderground v.1.15,2013-04-22 06:27:00,
2013-04-22 02:32:00,42.9,29.5,30.47,WNW,296,0.0,0.0,59,0.00,,,0.00,Wunderground v.1.15,2013-04-22 06:32:00,
2013-04-22 02:37:00,42.4,29.1,30.47,WNW,296,0.0,0.0,59,0.00,,,0.00,Wunderground v.1.15,2013-04-22 06:37:00,
2013-04-22 02:43:00,41.9,29.0,30.47,WNW,296,0.0,0.0,60,0.00,,,0.00,Wunderground v.1.15,2013-04-22 06:43:00,
2013-04-22 02:48:00,41.5,30.6,30.47,WNW,296,0.0,0.0,65,0.00,,,0.00,Wunderground v.1.15,2013-04-22 06:48:00,
2013-04-22 02:53:00,41.3,27.6,30.47,ESE,123,0.0,0.0,58,0.00,,,0.00,Wunderground v.1.15,2013-04-22 06:53:00,
2013-04-22 02:58:00,41.3,28.4,30.47,ESE,123,0.0,0.0,60,0.00,,,0.00,Wunderground v.1.15,2013-04-22 06:58:00,
2013-04-22 03:04:00,41.1,28.3,30.47,ESE,123,0.0,0.0,60,0.00,,,0.00,Wunderground v.1.15,2013-04-22 07:04:00,
2013-04-22 03:09:00,40.9,28.9,30.47,ESE,123,0.0,0.0,62,0.00,,,0.00,Wunderground v.1.15,2013-04-22 07:09:00,
2013-04-22 03:14:00,40.7,29.1,30.46,ESE,123,0.0,0.0,63,0.00,,,0.00,Wunderground v.1.15,2013-04-22 07:14:00,
2013-04-22 03:19:00,40.6,27.8,30.46,ESE,123,0.0,0.0,60,0.00,,,0.00,Wunderground v.1.15,2013-04-22 07:19:00,
2013-04-22 03:25:00,40.8,26.3,30.46,ESE,123,0.0,1.0,56,0.00,,,0.00,Wunderground v.1.15,2013-04-22 07:25:00,
2013-04-22 03:30:00,41.3,26.8,30.46,ENE,77,0.0,0.0,56,0.00,,,0.00,Wunderground v.1.15,2013-04-22 07:30:00,
2013-04-22 03:35:00,41.5,26.1,30.46,ENE,69,0.0,1.0,54,0.00,,,0.00,Wunderground v.1.15,2013-04-22 07:35:00,
2013-04-22 03:41:00,41.7,26.7,30.46,ENE,69,0.0,0.0,55,0.00,,,0.00,Wunderground v.1.15,2013-04-22 07:41:00,
2013-04-22 03:47:00,41.8,27.7,30.46,ENE,69,0.0,0.0,57,0.00,,,0.00,Wunderground v.1.15,2013-04-22 07:47:00,
2013-04-22 03:52:00,41.8,26.4,30.46,ENE,69,0.0,0.0,54,0.00,,,0.00,Wunderground v.1.15,2013-04-22 07:52:00,
2013-04-22 03:57:00,41.9,27.3,30.46,East,96,0.0,0.0,56,0.00,,,0.00,Wunderground v.1.15,2013-04-22 07:57:00,
2013-04-22 04:02:00,41.8,28.1,30.46,East,96,0.0,0.0,58,0.00,,,0.00,Wunderground v.1.15,2013-04-22 08:02:00,
2013-04-22 04:08:00,41.7,26.3,30.46,East,92,0.0,0.0,54,0.00,,,0.00,Wunderground v.1.15,2013-04-22 08:08:00,
2013-04-22 04:13:00,41.8,26.8,30.46,East,92,0.0,0.0,55,0.00,,,0.00,Wunderground v.1.15,2013-04-22 08:13:00,
2013-04-22 04:18:00,41.9,26.0,30.46,East,91,0.0,0.0,53,0.00,,,0.00,Wunderground v.1.15,2013-04-22 08:18:00,
2013-04-22 04:23:00,42.1,26.2,30.46,East,91,0.0,0.0,53,0.00,,,0.00,Wunderground v.1.15,2013-04-22 08:23:00,
2013-04-22 04:28:00,42.1,26.2,30.46,East,91,0.0,0.0,53,0.00,,,0.00,Wunderground v.1.15,2013-04-22 08:28:00,
2013-04-22 04:34:00,42.2,26.3,30.46,East,91,0.0,1.0,53,0.00,,,0.00,Wunderground v.1.15,2013-04-22 08:34:00,
2013-04-22 04:39:00,42.3,26.4,30.45,SSE,157,0.0,2.0,53,0.00,,,0.00,Wunderground v.1.15,2013-04-22 08:39:00,
2013-04-22 04:44:00,42.4,26.0,30.45,SSE,167,0.0,2.0,52,0.00,,,0.00,Wunderground v.1.15,2013-04-22 08:44:00,
2013-04-22 04:49:00,42.5,26.1,30.45,SE,142,0.0,2.0,52,0.00,,,0.00,Wunderground v.1.15,2013-04-22 08:49:00,
2013-04-22 04:54:00,42.8,26.4,30.45,ESE,122,0.0,2.0,52,0.00,,,0.00,Wunderground v.1.15,2013-04-22 08:54:00,
2013-04-22 05:00:00,42.8,26.4,30.45,ESE,122,0.0,0.0,52,0.00,,,0.00,Wunderground v.1.15,2013-04-22 09:00:00,
2013-04-22 05:06:00,42.8,26.4,30.45,ESE,122,0.0,0.0,52,0.00,,,0.00,Wunderground v.1.15,2013-04-22 09:06:00,
2013-04-22 05:11:00,42.7,26.3,30.45,ESE,117,0.0,0.0,52,0.00,,,0.00,Wunderground v.1.15,2013-04-22 09:11:00,
2013-04-22 05:16:00,42.7,27.2,30.45,NNE,20,0.0,0.0,54,0.00,,,0.00,Wunderground v.1.15,2013-04-22 09:16:00,
2013-04-22 05:21:00,42.6,27.1,30.45,NNE,20,0.0,0.0,54,0.00,,,0.00,Wunderground v.1.15,2013-04-22 09:21:00,
2013-04-22 05:27:00,42.5,26.6,30.45,NE,47,0.0,0.0,53,0.00,,,0.00,Wunderground v.1.15,2013-04-22 09:27:00,
2013-04-22 05:32:00,42.5,26.6,30.45,ENE,63,0.0,0.0,53,0.00,,,0.00,Wunderground v.1.15,2013-04-22 09:32:00,
2013-04-22 05:37:00,42.6,28.4,30.45,ENE,63,0.0,0.0,57,0.00,,,0.00,Wunderground v.1.15,2013-04-22 09:37:00,
2013-04-22 05:42:00,42.4,26.9,30.45,ENE,63,0.0,0.0,54,0.00,,,0.00,Wunderground v.1.15,2013-04-22 09:42:00,
2013-04-22 05:48:00,42.4,28.7,30.45,ENE,63,0.0,0.0,58,0.00,,,0.00,Wunderground v.1.15,2013-04-22 09:48:00,
2013-04-22 05:53:00,42.2,27.2,30.45,ENE,63,0.0,0.0,55,0.00,,,0.00,Wunderground v.1.15,2013-04-22 09:53:00,
2013-04-22 05:58:00,42.2,27.6,30.45,ENE,63,0.0,0.0,56,0.00,,,0.00,Wunderground v.1.15,2013-04-22 09:58:00,
2013-04-22 06:04:00,42.1,27.9,30.45,ENE,63,0.0,0.0,57,0.00,,,0.00,Wunderground v.1.15,2013-04-22 10:04:00,
2013-04-22 06:09:00,42.0,26.5,30.45,ENE,63,0.0,0.0,54,0.00,,,0.00,Wunderground v.1.15,2013-04-22 10:09:00,
2013-04-22 06:14:00,42.1,26.2,30.45,SSW,212,0.0,0.0,53,0.00,,,0.00,Wunderground v.1.15,2013-04-22 10:14:00,
2013-04-22 06:20:00,42.3,26.8,30.45,SSE,154,0.0,0.0,54,0.00,,,0.00,Wunderground v.1.15,2013-04-22 10:20:00,
2013-04-22 06:26:00,42.4,26.9,30.46,SE,145,0.0,1.0,54,0.00,,,0.00,Wunderground v.1.15,2013-04-22 10:26:00,
2013-04-22 06:31:00,42.4,26.9,30.46,NE,39,0.0,1.0,54,0.00,,,0.00,Wunderground v.1.15,2013-04-22 10:31:00,
2013-04-22 06:37:00,42.4,26.9,30.46,SE,131,0.0,1.0,54,0.00,,,0.00,Wunderground v.1.15,2013-04-22 10:37:00,
2013-04-22 06:42:00,42.5,27.0,30.46,ENE,70,0.0,0.0,54,0.00,,,0.00,Wunderground v.1.15,2013-04-22 10:42:00,
2013-04-22 06:47:00,42.5,27.0,30.46,ESE,111,0.0,1.0,54,0.00,,,0.00,Wunderground v.1.15,2013-04-22 10:47:00,
2013-04-22 06:52:00,42.5,27.0,30.46,NE,50,0.0,1.0,54,0.00,,,0.00,Wunderground v.1.15,2013-04-22 10:52:00,
2013-04-22 06:58:00,42.5,27.0,30.46,SSE,157,0.0,1.0,54,0.00,,,0.00,Wunderground v.1.15,2013-04-22 10:58:00,
2013-04-22 07:03:00,42.7,27.2,30.47,South,170,0.0,0.0,54,0.00,,,0.00,Wunderground v.1.15,2013-04-22 11:03:00,
2013-04-22 07:08:00,42.7,27.2,30.46,South,170,0.0,0.0,54,0.00,,,0.00,Wunderground v.1.15,2013-04-22 11:08:00,
2013-04-22 07:13:00,42.7,26.7,30.47,NNE,24,0.0,0.0,53,0.00,,,0.00,Wunderground v.1.15,2013-04-22 11:13:00,
2013-04-22 07:19:00,42.9,26.9,30.47,SSE,155,0.0,2.0,53,0.00,,,0.00,Wunderground v.1.15,2013-04-22 11:19:00,
2013-04-22 07:24:00,43.0,26.6,30.47,East,95,0.0,0.0,52,0.00,,,0.00,Wunderground v.1.15,2013-04-22 11:24:00,
2013-04-22 07:29:00,43.1,27.1,30.47,East,91,0.0,0.0,53,0.00,,,0.00,Wunderground v.1.15,2013-04-22 11:29:00,
2013-04-22 07:34:00,43.3,26.4,30.47,East,90,0.0,1.0,51,0.00,,,0.00,Wunderground v.1.15,2013-04-22 11:34:00,
2013-04-22 07:40:00,43.5,27.0,30.47,East,88,0.0,1.0,52,0.00,,,0.00,Wunderground v.1.15,2013-04-22 11:40:00,
2013-04-22 07:45:00,43.7,26.7,30.47,ESE,115,0.0,1.0,51,0.00,,,0.00,Wunderground v.1.15,2013-04-22 11:45:00,
2013-04-22 07:50:00,44.0,27.5,30.47,South,188,0.0,0.0,52,0.00,,,0.00,Wunderground v.1.15,2013-04-22 11:50:00,
2013-04-22 07:55:00,44.2,27.2,30.47,East,90,1.0,3.0,51,0.00,,,0.00,Wunderground v.1.15,2013-04-22 11:55:00,
2013-04-22 08:00:00,44.6,27.1,30.47,ENE,67,1.0,2.0,50,0.00,,,0.00,Wunderground v.1.15,2013-04-22 12:00:00,
2013-04-22 08:06:00,45.0,27.5,30.47,SSW,202,1.0,2.0,50,0.00,,,0.00,Wunderground v.1.15,2013-04-22 12:06:00,
2013-04-22 08:11:00,45.4,27.3,30.47,ENE,65,1.0,2.0,49,0.00,,,0.00,Wunderground v.1.15,2013-04-22 12:11:00,
2013-04-22 08:17:00,45.9,27.3,30.47,SSE,164,1.0,4.0,48,0.00,,,0.00,Wunderground v.1.15,2013-04-22 12:17:00,
2013-04-22 08:22:00,46.3,28.7,30.47,South,180,1.0,2.0,50,0.00,,,0.00,Wunderground v.1.15,2013-04-22 12:22:00,
2013-04-22 08:27:00,46.7,28.5,30.47,NE,36,1.0,2.0,49,0.00,,,0.00,Wunderground v.1.15,2013-04-22 12:27:00,
2013-04-22 08:32:00,46.9,28.7,30.47,SE,128,2.0,3.0,49,0.00,,,0.00,Wunderground v.1.15,2013-04-22 12:32:00,
2013-04-22 08:38:00,47.4,28.2,30.47,SSE,155,1.0,3.0,47,0.00,,,0.00,Wunderground v.1.15,2013-04-22 12:38:00,
2013-04-22 08:43:00,47.7,28.9,30.47,SE,130,2.0,4.0,48,0.00,,,0.00,Wunderground v.1.15,2013-04-22 12:43:00,
2013-04-22 08:48:00,48.1,29.3,30.47,ESE,118,2.0,5.0,48,0.00,,,0.00,Wunderground v.1.15,2013-04-22 12:48:00,
2013-04-22 08:54:00,48.6,30.3,30.47,NE,54,2.0,3.0,49,0.00,,,0.00,Wunderground v.1.15,2013-04-22 12:54:00,
2013-04-22 08:59:00,48.8,28.9,30.47,ESE,121,1.0,5.0,46,0.00,,,0.00,Wunderground v.1.15,2013-04-22 12:59:00,
2013-04-22 09:04:00,49.1,29.2,30.47,SE,128,2.0,3.0,46,0.00,,,0.00,Wunderground v.1.15,2013-04-22 13:04:00,
2013-04-22 09:10:00,49.5,29.6,30.47,SE,131,2.0,2.0,46,0.00,,,0.00,Wunderground v.1.15,2013-04-22 13:10:00,
2013-04-22 09:15:00,50.0,31.1,30.47,East,97,2.0,3.0,48,0.00,,,0.00,Wunderground v.1.15,2013-04-22 13:15:00,
2013-04-22 09:20:00,50.6,31.6,30.47,ESE,111,1.0,1.0,48,0.00,,,0.00,Wunderground v.1.15,2013-04-22 13:20:00,
2013-04-22 09:25:00,50.7,30.7,30.47,ESE,102,2.0,3.0,46,0.00,,,0.00,Wunderground v.1.15,2013-04-22 13:25:00,
2013-04-22 09:31:00,50.8,30.2,30.47,East,92,2.0,3.0,45,0.00,,,0.00,Wunderground v.1.15,2013-04-22 13:31:00,
2013-04-22 09:36:00,50.5,29.4,30.47,North,9,2.0,3.0,44,0.00,,,0.00,Wunderground v.1.15,2013-04-22 13:36:00,
2013-04-22 09:42:00,50.5,29.9,30.47,SE,134,2.0,3.0,45,0.00,,,0.00,Wunderground v.1.15,2013-04-22 13:42:00,
2013-04-22 09:47:00,50.6,30.6,30.47,SSE,149,2.0,6.0,46,0.00,,,0.00,Wunderground v.1.15,2013-04-22 13:47:00,
2013-04-22 09:52:00,50.6,30.0,30.48,ESE,122,3.0,4.0,45,0.00,,,0.00,Wunderground v.1.15,2013-04-22 13:52:00,
2013-04-22 09:58:00,50.7,30.1,30.48,SE,130,3.0,5.0,45,0.00,,,0.00,Wunderground v.1.15,2013-04-22 13:58:00,
2013-04-22 10:03:00,51.0,30.9,30.47,ESE,121,3.0,8.0,46,0.00,,,0.00,Wunderground v.1.15,2013-04-22 14:03:00,
2013-04-22 10:08:00,51.4,31.3,30.47,North,355,2.0,8.0,46,0.00,,,0.00,Wunderground v.1.15,2013-04-22 14:08:00,
2013-04-22 10:14:00,51.8,29.4,30.47,SSW,207,3.0,7.0,42,0.00,,,0.00,Wunderground v.1.15,2013-04-22 14:14:00,
2013-04-22 10:19:00,51.5,30.8,30.48,ESE,119,3.0,7.0,45,0.00,,,0.00,Wunderground v.1.15,2013-04-22 14:19:00,
2013-04-22 10:24:00,51.8,30.6,30.48,ESE,108,2.0,5.0,44,0.00,,,0.00,Wunderground v.1.15,2013-04-22 14:24:00,
2013-04-22 10:30:00,51.8,30.6,30.48,ESE,114,3.0,4.0,44,0.00,,,0.00,Wunderground v.1.15,2013-04-22 14:30:00,
2013-04-22 10:35:00,51.9,30.1,30.48,SE,136,3.0,7.0,43,0.00,,,0.00,Wunderground v.1.15,2013-04-22 14:35:00,
2013-04-22 10:40:00,52.1,30.3,30.47,SW,216,3.0,7.0,43,0.00,,,0.00,Wunderground v.1.15,2013-04-22 14:40:00,
2013-04-22 10:45:00,52.4,31.7,30.47,NNE,28,2.0,7.0,45,0.00,,,0.00,Wunderground v.1.15,2013-04-22 14:45:00,
2013-04-22 10:50:00,52.8,30.3,30.47,ESE,118,2.0,2.0,42,0.00,,,0.00,Wunderground v.1.15,2013-04-22 14:50:00,
2013-04-22 10:56:00,53.2,31.3,30.47,ESE,123,3.0,8.0,43,0.00,,,0.00,Wunderground v.1.15,2013-04-22 14:56:00,
2013-04-22 11:02:00,53.5,31.5,30.47,SE,126,2.0,3.0,43,0.00,,,0.00,Wunderground v.1.15,2013-04-22 15:02:00,
2013-04-22 11:07:00,53.9,33.0,30.47,ESE,115,3.0,5.0,45,0.00,,,0.00,Wunderground v.1.15,2013-04-22 15:07:00,
2013-04-22 11:12:00,54.2,30.4,30.47,ESE,117,3.0,4.0,40,0.00,,,0.00,Wunderground v.1.15,2013-04-22 15:12:00,
2013-04-22 11:17:00,54.6,31.3,30.47,SE,140,3.0,8.0,41,0.00,,,0.00,Wunderground v.1.15,2013-04-22 15:17:00,
2013-04-22 11:23:00,54.1,30.9,30.46,SE,139,4.0,5.0,41,0.00,,,0.00,Wunderground v.1.15,2013-04-22 15:23:00,
2013-04-22 11:28:00,54.6,33.7,30.46,East,79,3.0,6.0,45,0.00,,,0.00,Wunderground v.1.15,2013-04-22 15:28:00,
2013-04-22 11:33:00,55.1,33.6,30.45,East,101,2.0,5.0,44,0.00,,,0.00,Wunderground v.1.15,2013-04-22 15:33:00,
2013-04-22 11:39:00,55.7,31.7,30.45,NNE,26,2.0,5.0,40,0.00,,,0.00,Wunderground v.1.15,2013-04-22 15:39:00,
2013-04-22 11:44:00,55.8,31.8,30.45,South,171,3.0,7.0,40,0.00,,,0.00,Wunderground v.1.15,2013-04-22 15:44:00,
2013-04-22 11:49:00,55.5,32.2,30.45,East,96,3.0,7.0,41,0.00,,,0.00,Wunderground v.1.15,2013-04-22 15:49:00,
2013-04-22 11:55:00,55.2,30.7,30.44,SSW,207,3.0,8.0,39,0.00,,,0.00,Wunderground v.1.15,2013-04-22 15:55:00,
2013-04-22 12:00:00,55.8,32.4,30.44,SSE,163,3.0,3.0,41,0.00,,,0.00,Wunderground v.1.15,2013-04-22 16:00:00,
2013-04-22 12:06:00,56.1,31.5,30.44,NE,38,3.0,5.0,39,0.00,,,0.00,Wunderground v.1.15,2013-04-22 16:06:00,
2013-04-22 12:12:00,56.6,31.9,30.43,ENE,74,2.0,2.0,39,0.00,,,0.00,Wunderground v.1.15,2013-04-22 16:12:00,
2013-04-22 12:17:00,56.7,30.0,30.43,SW,218,2.0,3.0,36,0.00,,,0.00,Wunderground v.1.15,2013-04-22 16:17:00,
2013-04-22 12:22:00,57.1,31.7,30.43,SSE,148,2.0,2.0,38,0.00,,,0.00,Wunderground v.1.15,2013-04-22 16:22:00,
2013-04-22 12:28:00,57.4,35.1,30.43,SE,124,2.0,4.0,43,0.00,,,0.00,Wunderground v.1.15,2013-04-22 16:28:00,
2013-04-22 12:33:00,57.7,32.2,30.42,ESE,109,2.0,2.0,38,0.00,,,0.00,Wunderground v.1.15,2013-04-22 16:33:00,
2013-04-22 12:38:00,57.6,31.5,30.42,SW,228,3.0,4.0,37,0.00,,,0.00,Wunderground v.1.15,2013-04-22 16:38:00,
2013-04-22 12:43:00,57.7,32.9,30.42,SSE,153,3.0,5.0,39,0.00,,,0.00,Wunderground v.1.15,2013-04-22 16:43:00,
2013-04-22 12:48:00,58.1,30.6,30.41,ENE,57,2.0,5.0,35,0.00,,,0.00,Wunderground v.1.15,2013-04-22 16:48:00,
2013-04-22 12:54:00,58.1,31.3,30.41,ESE,123,2.0,3.0,36,0.00,,,0.00,Wunderground v.1.15,2013-04-22 16:54:00,
2013-04-22 12:59:00,58.1,31.3,30.41,SE,128,2.0,7.0,36,0.00,,,0.00,Wunderground v.1.15,2013-04-22 16:59:00,
2013-04-22 13:05:00,58.4,29.4,30.41,ESE,111,3.0,5.0,33,0.00,,,0.00,Wunderground v.1.15,2013-04-22 17:05:00,
2013-04-22 13:10:00,58.4,32.2,30.40,SW,229,3.0,3.0,37,0.00,,,0.00,Wunderground v.1.15,2013-04-22 17:10:00,
2013-04-22 13:15:00,58.8,30.5,30.40,NE,45,3.0,6.0,34,0.00,,,0.00,Wunderground v.1.15,2013-04-22 17:15:00,
2013-04-22 13:20:00,59.0,33.4,30.40,East,89,3.0,3.0,38,0.00,,,0.00,Wunderground v.1.15,2013-04-22 17:20:00,
2013-04-22 13:25:00,59.6,33.9,30.40,SE,138,2.0,5.0,38,0.00,,,0.00,Wunderground v.1.15,2013-04-22 17:25:00,
2013-04-22 13:30:00,59.9,32.2,30.40,ENE,65,1.0,1.0,35,0.00,,,0.00,Wunderground v.1.15,2013-04-22 17:30:00,
2013-04-22 13:35:00,60.1,30.9,30.39,SSE,149,1.0,7.0,33,0.00,,,0.00,Wunderground v.1.15,2013-04-22 17:35:00,
2013-04-22 13:40:00,60.1,32.3,30.39,SE,136,2.0,4.0,35,0.00,,,0.00,Wunderground v.1.15,2013-04-22 17:40:00,
2013-04-22 13:46:00,60.1,30.9,30.38,SSE,166,3.0,6.0,33,0.00,,,0.00,Wunderground v.1.15,2013-04-22 17:46:00,
2013-04-22 13:52:00,60.1,29.3,30.39,ESE,121,3.0,4.0,31,0.00,,,0.00,Wunderground v.1.15,2013-04-22 17:52:00,
2013-04-22 13:57:00,60.3,31.0,30.39,NE,44,3.0,4.0,33,0.00,,,0.00,Wunderground v.1.15,2013-04-22 17:57:00,
2013-04-22 14:02:00,60.6,33.5,30.38,ESE,113,2.0,4.0,36,0.00,,,0.00,Wunderground v.1.15,2013-04-22 18:02:00,
2013-04-22 14:07:00,61.1,31.8,30.38,South,190,2.0,4.0,33,0.00,,,0.00,Wunderground v.1.15,2013-04-22 18:07:00,
2013-04-22 14:13:00,61.0,31.7,30.38,ENE,72,2.0,3.0,33,0.00,,,0.00,Wunderground v.1.15,2013-04-22 18:13:00,
2013-04-22 14:18:00,60.8,29.9,30.37,South,176,3.0,5.0,31,0.00,,,0.00,Wunderground v.1.15,2013-04-22 18:18:00,
2013-04-22 14:23:00,61.0,33.1,30.37,ESE,115,3.0,5.0,35,0.00,,,0.00,Wunderground v.1.15,2013-04-22 18:23:00,
2013-04-22 14:28:00,61.3,31.2,30.37,SE,129,2.0,5.0,32,0.00,,,0.00,Wunderground v.1.15,2013-04-22 18:28:00,
2013-04-22 14:34:00,61.8,31.6,30.37,SE,131,2.0,3.0,32,0.00,,,0.00,Wunderground v.1.15,2013-04-22 18:34:00,
2013-04-22 14:40:00,62.1,33.4,30.36,ESE,104,2.0,2.0,34,0.00,,,0.00,Wunderground v.1.15,2013-04-22 18:40:00,
2013-04-22 14:45:00,62.4,29.7,30.36,SSE,159,1.0,3.0,29,0.00,,,0.00,Wunderground v.1.15,2013-04-22 18:45:00,
2013-04-22 14:50:00,62.3,32.0,30.36,East,101,2.0,2.0,32,0.00,,,0.00,Wunderground v.1.15,2013-04-22 18:50:00,
2013-04-22 14:55:00,62.4,29.7,30.36,WSW,242,1.0,2.0,29,0.00,,,0.00,Wunderground v.1.15,2013-04-22 18:55:00,
2013-04-22 15:00:00,62.2,32.0,30.36,North,355,2.0,2.0,32,0.00,,,0.00,Wunderground v.1.15,2013-04-22 19:00:00,
2013-04-22 15:06:00,61.6,30.6,30.36,ESE,117,3.0,5.0,31,0.00,,,0.00,Wunderground v.1.15,2013-04-22 19:06:00,
2013-04-22 15:11:00,61.4,30.5,30.36,NNE,18,3.0,3.0,31,0.00,,,0.00,Wunderground v.1.15,2013-04-22 19:11:00,
2013-04-22 15:16:00,61.3,29.6,30.35,SE,128,1.0,3.0,30,0.00,,,0.00,Wunderground v.1.15,2013-04-22 19:16:00,
2013-04-22 15:21:00,61.4,28.0,30.35,SW,219,1.0,5.0,28,0.00,,,0.00,Wunderground v.1.15,2013-04-22 19:21:00,
2013-04-22 15:27:00,61.6,29.0,30.34,SSW,192,2.0,5.0,29,0.00,,,0.00,Wunderground v.1.15,2013-04-22 19:27:00,
2013-04-22 15:32:00,61.6,29.8,30.34,SE,138,2.0,3.0,30,0.00,,,0.00,Wunderground v.1.15,2013-04-22 19:32:00,
2013-04-22 15:37:00,61.5,28.9,30.34,NNW,340,3.0,3.0,29,0.00,,,0.00,Wunderground v.1.15,2013-04-22 19:37:00,
2013-04-22 15:42:00,61.5,27.2,30.34,SE,140,2.0,3.0,27,0.00,,,0.00,Wunderground v.1.15,2013-04-22 19:42:00,
2013-04-22 15:47:00,61.6,29.0,30.34,ESE,107,2.0,5.0,29,0.00,,,0.00,Wunderground v.1.15,2013-04-22 19:47:00,
2013-04-22 15:52:00,61.7,30.7,30.34,SE,144,1.0,2.0,31,0.00,,,0.00,Wunderground v.1.15,2013-04-22 19:52:00,
2013-04-22 15:58:00,61.6,29.8,30.33,SSE,161,2.0,4.0,30,0.00,,,0.00,Wunderground v.1.15,2013-04-22 19:58:00,
2013-04-22 16:03:00,61.5,28.1,30.33,East,85,2.0,2.0,28,0.00,,,0.00,Wunderground v.1.15,2013-04-22 20:03:00,
2013-04-22 16:08:00,61.6,29.8,30.33,South,179,2.0,7.0,30,0.00,,,0.00,Wunderground v.1.15,2013-04-22 20:08:00,
2013-04-22 16:13:00,61.3,27.0,30.33,ESE,109,2.0,5.0,27,0.00,,,0.00,Wunderground v.1.15,2013-04-22 20:13:00,
2013-04-22 16:19:00,60.9,25.7,30.33,ENE,60,3.0,5.0,26,0.00,,,0.00,Wunderground v.1.15,2013-04-22 20:19:00,
2013-04-22 16:24:00,60.8,27.5,30.33,SSE,153,3.0,4.0,28,0.00,,,0.00,Wunderground v.1.15,2013-04-22 20:24:00,
2013-04-22 16:29:00,60.9,30.0,30.33,NE,34,2.0,4.0,31,0.00,,,0.00,Wunderground v.1.15,2013-04-22 20:29:00,
2013-04-22 16:34:00,61.0,27.6,30.32,South,175,2.0,4.0,28,0.00,,,0.00,Wunderground v.1.15,2013-04-22 20:34:00,
2013-04-22 16:39:00,60.9,27.5,30.32,ESE,123,2.0,4.0,28,0.00,,,0.00,Wunderground v.1.15,2013-04-22 20:39:00,
2013-04-22 16:45:00,61.2,27.8,30.32,East,86,2.0,2.0,28,0.00,,,0.00,Wunderground v.1.15,2013-04-22 20:45:00,
2013-04-22 16:50:00,61.3,29.6,30.32,ESE,107,1.0,1.0,30,0.00,,,0.00,Wunderground v.1.15,2013-04-22 20:50:00,
2013-04-22 16:55:00,61.1,27.7,30.32,East,85,2.0,3.0,28,0.00,,,0.00,Wunderground v.1.15,2013-04-22 20:55:00,
2013-04-22 17:00:00,60.8,26.6,30.31,ESE,115,2.0,3.0,27,0.00,,,0.00,Wunderground v.1.15,2013-04-22 21:00:00,
2013-04-22 17:06:00,61.0,29.3,30.31,NE,36,1.0,3.0,30,0.00,,,0.00,Wunderground v.1.15,2013-04-22 21:06:00,
2013-04-22 17:12:00,61.3,28.7,30.31,SE,134,1.0,2.0,29,0.00,,,0.00,Wunderground v.1.15,2013-04-22 21:12:00,
2013-04-22 17:17:00,61.1,27.7,30.31,SE,142,2.0,5.0,28,0.00,,,0.00,Wunderground v.1.15,2013-04-22 21:17:00,
2013-04-22 17:22:00,60.9,27.5,30.31,ESE,111,3.0,8.0,28,0.00,,,0.00,Wunderground v.1.15,2013-04-22 21:22:00,
2013-04-22 17:28:00,60.9,27.5,30.31,ESE,122,2.0,8.0,28,0.00,,,0.00,Wunderground v.1.15,2013-04-22 21:28:00,
2013-04-22 17:33:00,61.1,27.7,30.31,ESE,117,2.0,4.0,28,0.00,,,0.00,Wunderground v.1.15,2013-04-22 21:33:00,
2013-04-22 17:38:00,60.9,28.4,30.30,East,84,2.0,7.0,29,0.00,,,0.00,Wunderground v.1.15,2013-04-22 21:38:00,
2013-04-22 17:44:00,60.7,27.4,30.30,SE,134,1.0,2.0,28,0.00,,,0.00,Wunderground v.1.15,2013-04-22 21:44:00,
2013-04-22 17:49:00,60.4,28.0,30.30,SE,138,2.0,4.0,29,0.00,,,0.00,Wunderground v.1.15,2013-04-22 21:49:00,
2013-04-22 17:54:00,60.2,26.9,30.30,South,182,2.0,3.0,28,0.00,,,0.00,Wunderground v.1.15,2013-04-22 21:54:00,
2013-04-22 17:59:00,59.9,26.7,30.30,SE,134,2.0,6.0,28,0.00,,,0.00,Wunderground v.1.15,2013-04-22 21:59:00,
2013-04-22 18:05:00,59.7,25.6,30.30,SSE,157,3.0,4.0,27,0.00,,,0.00,Wunderground v.1.15,2013-04-22 22:05:00,
2013-04-22 18:10:00,59.5,27.2,30.30,ESE,119,2.0,2.0,29,0.00,,,0.00,Wunderground v.1.15,2013-04-22 22:10:00,
2013-04-22 18:16:00,59.4,25.4,30.30,East,84,1.0,3.0,27,0.00,,,0.00,Wunderground v.1.15,2013-04-22 22:16:00,
2013-04-22 18:22:00,59.3,25.3,30.30,ESE,116,1.0,4.0,27,0.00,,,0.00,Wunderground v.1.15,2013-04-22 22:22:00,
2013-04-22 18:27:00,59.2,24.3,30.30,SE,133,1.0,5.0,26,0.00,,,0.00,Wunderground v.1.15,2013-04-22 22:27:00,
2013-04-22 18:32:00,59.2,24.3,30.30,SE,129,2.0,2.0,26,0.00,,,0.00,Wunderground v.1.15,2013-04-22 22:32:00,
2013-04-22 18:37:00,59.0,24.1,30.30,ESE,121,1.0,2.0,26,0.00,,,0.00,Wunderground v.1.15,2013-04-22 22:37:00,
2013-04-22 18:42:00,58.8,23.9,30.30,ENE,68,1.0,1.0,26,0.00,,,0.00,Wunderground v.1.15,2013-04-22 22:42:00,
2013-04-22 18:47:00,58.6,23.8,30.30,ESE,115,1.0,1.0,26,0.00,,,0.00,Wunderground v.1.15,2013-04-22 22:47:00,
2013-04-22 18:52:00,58.6,23.8,30.30,ESE,120,1.0,3.0,26,0.00,,,0.00,Wunderground v.1.15,2013-04-22 22:52:00,
2013-04-22 18:57:00,58.4,22.7,30.30,SE,128,1.0,3.0,25,0.00,,,0.00,Wunderground v.1.15,2013-04-22 22:57:00,
2013-04-22 19:03:00,58.4,21.7,30.30,SSW,210,2.0,3.0,24,0.00,,,0.00,Wunderground v.1.15,2013-04-22 23:03:00,
2013-04-22 19:08:00,58.3,22.6,30.30,SE,125,2.0,3.0,25,0.00,,,0.00,Wunderground v.1.15,2013-04-22 23:08:00,
2013-04-22 19:14:00,58.1,23.3,30.30,NNE,32,2.0,4.0,26,0.00,,,0.00,Wunderground v.1.15,2013-04-22 23:14:00,
2013-04-22 19:19:00,57.9,22.2,30.30,ESE,118,2.0,4.0,25,0.00,,,0.00,Wunderground v.1.15,2013-04-22 23:19:00,
2013-04-22 19:24:00,57.9,22.2,30.30,NE,55,2.0,2.0,25,0.00,,,0.00,Wunderground v.1.15,2013-04-22 23:24:00,
2013-04-22 19:29:00,57.7,22.1,30.30,ESE,122,2.0,4.0,25,0.00,,,0.00,Wunderground v.1.15,2013-04-22 23:29:00,
2013-04-22 19:35:00,57.5,21.9,30.30,North,5,1.0,1.0,25,0.00,,,0.00,Wunderground v.1.15,2013-04-22 23:35:00,
2013-04-22 19:40:00,57.3,22.7,30.30,SE,133,1.0,1.0,26,0.00,,,0.00,Wunderground v.1.15,2013-04-22 23:40:00,
2013-04-22 19:45:00,57.1,23.4,30.30,NNE,24,1.0,5.0,27,0.00,,,0.00,Wunderground v.1.15,2013-04-22 23:45:00,
2013-04-22 19:51:00,56.9,23.2,30.30,East,101,1.0,1.0,27,0.00,,,0.00,Wunderground v.1.15,2013-04-22 23:51:00,
2013-04-22 19:57:00,56.7,22.2,30.30,ESE,106,1.0,3.0,26,0.00,,,0.00,Wunderground v.1.15,2013-04-22 23:57:00,
2013-04-22 20:02:00,56.4,23.7,30.30,East,100,0.0,2.0,28,0.00,,,0.00,Wunderground v.1.15,2013-04-23 00:02:00,
2013-04-22 20:07:00,56.2,24.3,30.31,East,99,0.0,2.0,29,0.00,,,0.00,Wunderground v.1.15,2013-04-23 00:07:00,
2013-04-22 20:13:00,55.9,24.1,30.31,SE,128,0.0,1.0,29,0.00,,,0.00,Wunderground v.1.15,2013-04-23 00:13:00,
2013-04-22 20:18:00,55.7,23.9,30.31,ESE,108,0.0,1.0,29,0.00,,,0.00,Wunderground v.1.15,2013-04-23 00:18:00,
2013-04-22 20:23:00,55.4,24.4,30.30,NE,40,1.0,3.0,30,0.00,,,0.00,Wunderground v.1.15,2013-04-23 00:23:00,
2013-04-22 20:29:00,55.1,24.2,30.30,SE,143,0.0,3.0,30,0.00,,,0.00,Wunderground v.1.15,2013-04-23 00:29:00,
2013-04-22 20:34:00,54.8,24.7,30.30,ESE,114,0.0,0.0,31,0.00,,,0.00,Wunderground v.1.15,2013-04-23 00:34:00,
2013-04-22 20:39:00,54.5,25.2,30.31,SE,146,0.0,2.0,32,0.00,,,0.00,Wunderground v.1.15,2013-04-23 00:39:00,
2013-04-22 20:45:00,54.2,24.9,30.31,SSE,161,0.0,1.0,32,0.00,,,0.00,Wunderground v.1.15,2013-04-23 00:45:00,
2013-04-22 20:50:00,54.1,24.9,30.31,East,80,1.0,2.0,32,0.00,,,0.00,Wunderground v.1.15,2013-04-23 00:50:00,
2013-04-22 20:55:00,54.0,26.2,30.31,SSE,155,1.0,2.0,34,0.00,,,0.00,Wunderground v.1.15,2013-04-23 00:55:00,
2013-04-22 21:00:00,53.7,26.0,30.31,South,172,1.0,1.0,34,0.00,,,0.00,Wunderground v.1.15,2013-04-23 01:00:00,
2013-04-22 21:06:00,53.6,25.9,30.32,ESE,115,1.0,1.0,34,0.00,,,0.00,Wunderground v.1.15,2013-04-23 01:06:00,
2013-04-22 21:11:00,53.4,26.4,30.32,SSE,166,0.0,2.0,35,0.00,,,0.00,Wunderground v.1.15,2013-04-23 01:11:00,
2013-04-22 21:16:00,53.1,26.1,30.32,ESE,107,0.0,2.0,35,0.00,,,0.00,Wunderground v.1.15,2013-04-23 01:16:00,
2013-04-22 21:22:00,52.9,26.0,30.32,East,99,1.0,1.0,35,0.00,,,0.00,Wunderground v.1.15,2013-04-23 01:22:00,
2013-04-22 21:28:00,52.8,25.9,30.32,ESE,105,1.0,2.0,35,0.00,,,0.00,Wunderground v.1.15,2013-04-23 01:28:00,
2013-04-22 21:33:00,52.7,26.5,30.32,ESE,123,1.0,4.0,36,0.00,,,0.00,Wunderground v.1.15,2013-04-23 01:33:00,
2013-04-22 21:38:00,52.6,27.0,30.32,ESE,107,1.0,7.0,37,0.00,,,0.00,Wunderground v.1.15,2013-04-23 01:38:00,
2013-04-22 21:43:00,52.5,26.9,30.32,SSE,165,1.0,2.0,37,0.00,,,0.00,Wunderground v.1.15,2013-04-23 01:43:00,
2013-04-22 21:48:00,52.3,26.1,30.32,SE,144,1.0,2.0,36,0.00,,,0.00,Wunderground v.1.15,2013-04-23 01:48:00,
2013-04-22 21:53:00,52.1,26.6,30.32,ENE,61,0.0,0.0,37,0.00,,,0.00,Wunderground v.1.15,2013-04-23 01:53:00,
2013-04-22 21:59:00,51.7,26.9,30.32,ESE,110,0.0,3.0,38,0.00,,,0.00,Wunderground v.1.15,2013-04-23 01:59:00,
2013-04-22 22:04:00,51.5,26.7,30.32,NE,36,1.0,1.0,38,0.00,,,0.00,Wunderground v.1.15,2013-04-23 02:04:00,
2013-04-22 22:09:00,51.4,26.6,30.32,SE,126,1.0,4.0,38,0.00,,,0.00,Wunderground v.1.15,2013-04-23 02:09:00,
2013-04-22 22:15:00,51.2,27.1,30.32,SE,125,1.0,2.0,39,0.00,,,0.00,Wunderground v.1.15,2013-04-23 02:15:00,
2013-04-22 22:20:00,51.0,27.5,30.32,NNE,19,1.0,1.0,40,0.00,,,0.00,Wunderground v.1.15,2013-04-23 02:20:00,
2013-04-22 22:25:00,51.0,28.1,30.32,SE,130,1.0,4.0,41,0.00,,,0.00,Wunderground v.1.15,2013-04-23 02:25:00,
2013-04-22 22:31:00,50.8,27.9,30.32,SSE,150,1.0,1.0,41,0.00,,,0.00,Wunderground v.1.15,2013-04-23 02:31:00,
2013-04-22 22:37:00,50.7,27.8,30.32,SSE,155,1.0,1.0,41,0.00,,,0.00,Wunderground v.1.15,2013-04-23 02:37:00,
2013-04-22 22:42:00,50.5,28.8,30.32,East,91,0.0,1.0,43,0.00,,,0.00,Wunderground v.1.15,2013-04-23 02:42:00,
2013-04-22 22:47:00,50.3,28.1,30.32,SSE,156,0.0,1.0,42,0.00,,,0.00,Wunderground v.1.15,2013-04-23 02:47:00,
2013-04-22 22:52:00,50.2,28.5,30.32,SSE,156,0.0,0.0,43,0.00,,,0.00,Wunderground v.1.15,2013-04-23 02:52:00,
2013-04-22 22:58:00,50.0,28.9,30.32,SE,130,0.0,3.0,44,0.00,,,0.00,Wunderground v.1.15,2013-04-23 02:58:00,
2013-04-22 23:03:00,49.7,28.6,30.31,ESE,107,0.0,1.0,44,0.00,,,0.00,Wunderground v.1.15,2013-04-23 03:03:00,
2013-04-22 23:09:00,49.5,29.6,30.31,East,91,0.0,1.0,46,0.00,,,0.00,Wunderground v.1.15,2013-04-23 03:09:00,
2013-04-22 23:14:00,49.4,28.9,30.31,East,90,0.0,1.0,45,0.00,,,0.00,Wunderground v.1.15,2013-04-23 03:14:00,
2013-04-22 23:19:00,49.3,29.4,30.31,SSE,150,0.0,2.0,46,0.00,,,0.00,Wunderground v.1.15,2013-04-23 03:19:00,
2013-04-22 23:24:00,49.1,29.7,30.31,ESE,109,0.0,0.0,47,0.00,,,0.00,Wunderground v.1.15,2013-04-23 03:24:00,
2013-04-22 23:30:00,48.8,30.0,30.31,ESE,109,0.0,0.0,48,0.00,,,0.00,Wunderground v.1.15,2013-04-23 03:30:00,
2013-04-22 23:35:00,48.5,29.7,30.31,ESE,109,0.0,0.0,48,0.00,,,0.00,Wunderground v.1.15,2013-04-23 03:35:00,
2013-04-22 23:40:00,48.4,30.1,30.31,West,279,0.0,1.0,49,0.00,,,0.00,Wunderground v.1.15,2013-04-23 03:40:00,
2013-04-22 23:46:00,48.4,30.1,30.31,NW,307,0.0,1.0,49,0.00,,,0.00,Wunderground v.1.15,2013-04-23 03:46:00,
2013-04-22 23:52:00,48.3,30.0,30.31,ESE,116,0.0,1.0,49,0.00,,,0.00,Wunderground v.1.15,2013-04-23 03:52:00,
2013-04-22 23:57:00,48.2,30.4,30.30,SSE,157,0.0,1.0,50,0.00,,,0.00,Wunderground v.1.15,2013-04-23 03:57:00,